Location: *
(2.5500°S, 65.9667°W)
Time: 18:01:55
(UTC+00:00)

SRMSAT - Pass Details

Date: 09 July 2022
Orbit: 848 x 865 km, 20.0° (Epoch: 18 August)

Event Time Altitude Azimuth Distance (km) Brightness Sun altitude
Exits shadow 08:45:08 21° 173° (S) 1,813 ? -25.0°
Drops below altitude 10° 08:48:15 10° 143° (SE) 2,463 ? -24.2°
Sets 08:51:21 0° 128° (SE) 3,400 ? -23.5°
